| time (UTC) | temp F | wind direction | speed knots | gust knots | rain 1hr in | rain 24hr in | rain mn in | humidity % | barometer mb |
| 20260507021331 | 41 | 288 | 1.7 | 4.3 | 0.00 | 1.22 | 1.20 | 97 | 1006.5 |
| 20260507020831 | 41 | 284 | 1.7 | 3.5 | 0.00 | 1.23 | 1.20 | 97 | 1006.6 |
| 20260507020331 | 41 | 280 | 1.7 | 3.5 | 0.00 | 1.23 | 1.20 | 97 | 1006.5 |
| 20260507015828 | 42 | 279 | 1.7 | 3.5 | 0.00 | 1.23 | 1.20 | 97 | 1006.5 |
| 20260507015322 | 42 | 322 | 0.9 | 2.6 | 0.00 | 1.23 | 1.20 | 97 | 1006.7 |
| 20260507014823 | 42 | 321 | 1.7 | 4.3 | 0.00 | 1.23 | 1.20 | 97 | 1006.7 |
| 20260507014323 | 42 | 344 | 2.6 | 6.1 | 0.00 | 1.23 | 1.20 | 97 | 1006.8 |
| 20260507013825 | 42 | 291 | 2.6 | 7.0 | 0.00 | 1.23 | 1.20 | 97 | 1006.8 |
| 20260507013323 | 42 | 247 | 2.6 | 7.0 | 0.00 | 1.23 | 1.20 | 97 | 1006.7 |
| 20260507012822 | 42 | 319 | 2.6 | 9.6 | 0.00 | 1.23 | 1.20 | 97 | 1006.6 |
| 20260507012322 | 42 | 244 | 2.6 | 9.6 | 0.00 | 1.23 | 1.20 | 97 | 1006.5 |
| 20260507012044 | 42 | 262 | 2.6 | 6.1 | 0.01 | 1.23 | 1.20 | 97 | 1006.5 |
| 20260507011321 | 42 | 328 | 2.6 | 7.8 | 0.02 | 1.23 | 1.20 | 97 | 1006.4 |
| 20260507010822 | 42 | 248 | 2.6 | 7.8 | 0.03 | 1.23 | 1.20 | 97 | 1006.4 |
| 20260507010321 | 42 | 319 | 3.5 | 12.2 | 0.04 | 1.23 | 1.20 | 97 | 1006.4 |
| 20260507010041 | 42 | 255 | 3.5 | 12.2 | 0.04 | 1.23 | 1.20 | 97 | 1006.5 |
| 20260507005322 | 42 | 253 | 3.5 | 10.4 | 0.04 | 1.23 | 1.20 | 97 | 1006.2 |
| 20260507004822 | 42 | 299 | 3.5 | 7.8 | 0.05 | 1.23 | 1.20 | 98 | 1006.1 |
| 20260507004322 | 42 | 238 | 2.6 | 7.8 | 0.06 | 1.23 | 1.20 | 98 | 1006.0 |
| 20260507003822 | 42 | 290 | 1.7 | 6.1 | 0.06 | 1.23 | 1.20 | 98 | 1006.1 |
| 20260507003322 | 42 | 254 | 2.6 | 6.1 | 0.06 | 1.23 | 1.20 | 98 | 1006.0 |
| 20260507002821 | 42 | 247 | 2.6 | 7.0 | 0.06 | 1.23 | 1.20 | 98 | 1006.0 |
| 20260507002318 | 42 | 258 | 3.5 | 7.0 | 0.06 | 1.23 | 1.20 | 98 | 1006.0 |
| 20260507001818 | 42 | 317 | 3.5 | 7.0 | 0.05 | 1.23 | 1.19 | 98 | 1005.9 |
| 20260507001317 | 42 | 238 | 3.5 | 8.7 | 0.05 | 1.22 | 1.18 | 98 | 1005.9 |
| 20260507000817 | 42 | 247 | 3.5 | 8.7 | 0.04 | 1.21 | 1.17 | 98 | 1006.0 |
| 20260507000317 | 43 | 293 | 3.5 | 7.8 | 0.03 | 1.20 | 1.16 | 98 | 1005.9 |
| 20260506235818 | 43 | 257 | 2.6 | 7.8 | 0.03 | 1.20 | 1.16 | 98 | 1005.9 |
| 20260506235318 | 43 | 257 | 3.5 | 8.7 | 0.03 | 1.20 | 1.16 | 98 | 1005.7 |
| 20260506234818 | 43 | 237 | 3.5 | 8.7 | 0.02 | 1.19 | 1.15 | 98 | 1005.6 |
| 20260506234314 | 43 | 257 | 2.6 | 7.8 | 0.01 | 1.18 | 1.14 | 98 | 1005.6 |
| 20260506233813 | 42 | 271 | 0.9 | 4.3 | 0.01 | 1.18 | 1.14 | 98 | 1005.5 |
| 20260506233532 | 42 | 138 | 0.0 | 1.7 | 0.01 | 1.18 | 1.14 | 98 | 1005.3 |
| 20260506232812 | 42 | 138 | 0.0 | 1.7 | 0.02 | 1.18 | 1.14 | 98 | 1005.2 |
| 20260506232530 | 42 | 138 | 0.9 | 2.6 | 0.03 | 1.18 | 1.14 | 98 | 1005.1 |
| 20260506231810 | 42 | 138 | 0.0 | 2.6 | 0.04 | 1.18 | 1.14 | 98 | 1005.1 |
| 20260506231307 | 42 | 138 | 0.0 | 1.7 | 0.03 | 1.17 | 1.13 | 98 | 1005.0 |
| 20260506230806 | 42 | 138 | 0.9 | 2.6 | 0.03 | 1.17 | 1.13 | 98 | 1004.9 |
| 20260506230304 | 42 | 138 | 0.9 | 2.6 | 0.04 | 1.17 | 1.13 | 98 | 1004.8 |
| 20260506225801 | 42 | 138 | 0.9 | 3.5 | 0.04 | 1.17 | 1.13 | 98 | 1004.8 |
| 20260506225306 | 42 | 138 | 0.9 | 3.5 | 0.04 | 1.17 | 1.13 | 98 | 1004.8 |
| 20260506224258 | 42 | 125 | 0.0 | 1.7 | 0.04 | 1.17 | 1.13 | 98 | 1004.8 |
| 20260506223757 | 43 | 124 | 0.9 | 2.6 | 0.05 | 1.17 | 1.13 | 98 | 1004.7 |
| 20260506223513 | 43 | 123 | 0.9 | 2.6 | 0.06 | 1.17 | 1.13 | 98 | 1004.6 |
| 20260506222748 | 43 | 123 | 0.9 | 1.7 | 0.05 | 1.16 | 1.12 | 98 | 1004.6 |
| 20260506222245 | 43 | 123 | 0.9 | 2.6 | 0.04 | 1.15 | 1.11 | 98 | 1004.7 |
| 20260506222005 | 43 | 123 | 0.9 | 2.6 | 0.03 | 1.14 | 1.10 | 98 | 1004.7 |
| 20260506221502 | 43 | 121 | 0.9 | 2.6 | 0.03 | 1.14 | 1.10 | 98 | 1004.6 |
| 20260506220741 | 43 | 121 | 0.9 | 2.6 | 0.03 | 1.14 | 1.10 | 98 | 1004.5 |
| 20260506220508 | 43 | 121 | 0.9 | 2.6 | 0.02 | 1.13 | 1.09 | 98 | 1004.4 |
| 20260506215741 | 43 | 122 | 0.9 | 2.6 | 0.02 | 1.13 | 1.09 | 98 | 1004.7 |
| 20260506215241 | 43 | 122 | 0.9 | 2.6 | 0.02 | 1.13 | 1.09 | 98 | 1004.6 |
| 20260506214739 | 43 | 121 | 0.9 | 2.6 | 0.02 | 1.13 | 1.09 | 98 | 1004.6 |
| 20260506214239 | 43 | 121 | 0.9 | 2.6 | 0.03 | 1.13 | 1.09 | 98 | 1004.5 |
| 20260506213737 | 43 | 120 | 0.9 | 2.6 | 0.02 | 1.12 | 1.08 | 98 | 1004.4 |
| 20260506213237 | 43 | 120 | 0.0 | 1.7 | 0.01 | 1.11 | 1.07 | 98 | 1004.5 |
| 20260506212738 | 43 | 121 | 0.0 | 0.9 | 0.01 | 1.11 | 1.07 | 98 | 1004.5 |
| 20260506212237 | 43 | 120 | 0.0 | 0.9 | 0.01 | 1.11 | 1.07 | 98 | 1004.6 |
| 20260506211230 | 43 | 121 | 0.9 | 1.7 | 0.02 | 1.11 | 1.07 | 98 | 1004.1 |
| 20260506210724 | 43 | 121 | 0.9 | 1.7 | 0.02 | 1.11 | 1.07 | 98 | 1004.1 |
| 20260506210214 | 43 | 120 | 0.9 | 1.7 | 0.02 | 1.11 | 1.07 | 98 | 1004.1 |
| 20260506205707 | 43 | 119 | 0.9 | 1.7 | 0.03 | 1.11 | 1.07 | 98 | 1004.0 |
| 20260506205202 | 43 | 119 | 0.0 | 0.9 | 0.03 | 1.11 | 1.07 | 98 | 1004.0 |
| 20260506204653 | 43 | 119 | 0.9 | 1.7 | 0.04 | 1.11 | 1.07 | 98 | 1004.0 |
| 20260506204147 | 43 | 119 | 0.9 | 1.7 | 0.03 | 1.10 | 1.06 | 98 | 1003.9 |
| 20260506203641 | 43 | 119 | 0.0 | 1.7 | 0.03 | 1.11 | 1.06 | 98 | 1003.9 |
| 20260506203130 | 42 | 119 | 0.0 | 0.9 | 0.03 | 1.11 | 1.06 | 98 | 1003.9 |
| 20260506202624 | 42 | 119 | 0.0 | 0.9 | 0.04 | 1.12 | 1.06 | 98 | 1003.9 |
| 20260506202122 | 42 | 119 | 0.0 | 0.9 | 0.04 | 1.13 | 1.06 | 98 | 1004.0 |
| 20260506201623 | 42 | 119 | 0.0 | 1.7 | 0.03 | 1.12 | 1.06 | 98 | 1003.9 |
| 20260506201123 | 42 | 119 | 0.9 | 1.7 | 0.03 | 1.16 | 1.05 | 98 | 1004.0 |
| 20260506200622 | 42 | 119 | 0.0 | 0.9 | 0.04 | 1.20 | 1.05 | 98 | 1004.0 |
| 20260506200122 | 42 | 119 | 0.9 | 1.7 | 0.04 | 1.20 | 1.05 | 98 | 1004.0 |
| 20260506195621 | 42 | 119 | 0.9 | 2.6 | 0.03 | 1.19 | 1.04 | 98 | 1004.0 |
| 20260506194622 | 42 | 118 | 0.9 | 2.6 | 0.02 | 1.18 | 1.03 | 98 | 1004.2 |
| 20260506194124 | 42 | 118 | 0.9 | 2.6 | 0.03 | 1.18 | 1.03 | 98 | 1004.1 |
| 20260506193621 | 42 | 117 | 0.9 | 2.6 | 0.03 | 1.18 | 1.03 | 98 | 1004.1 |
| 20260506193121 | 42 | 117 | 0.9 | 2.6 | 0.02 | 1.17 | 1.02 | 98 | 1004.1 |
| 20260506192621 | 42 | 117 | 0.9 | 5.2 | 0.03 | 1.17 | 1.02 | 98 | 1004.1 |
| 20260506192121 | 42 | 118 | 0.9 | 5.2 | 0.04 | 1.17 | 1.02 | 98 | 1004.1 |
| 20260506191622 | 42 | 126 | 1.7 | 5.2 | 0.05 | 1.17 | 1.02 | 98 | 1004.0 |
| 20260506191121 | 42 | 98 | 1.7 | 6.1 | 0.05 | 1.17 | 1.02 | 98 | 1004.0 |
| 20260506190621 | 42 | 189 | 1.7 | 6.1 | 0.05 | 1.16 | 1.01 | 98 | 1004.0 |
| 20260506190342 | 42 | 124 | 1.7 | 3.5 | 0.06 | 1.16 | 1.01 | 98 | 1004.0 |
| 20260506185621 | 42 | 144 | 1.7 | 4.3 | 0.06 | 1.16 | 1.01 | 98 | 1004.1 |
| 20260506185122 | 42 | 146 | 1.7 | 4.3 | 0.07 | 1.16 | 1.01 | 98 | 1004.0 |
| 20260506184620 | 42 | 128 | 0.9 | 5.2 | 0.07 | 1.16 | 1.01 | 98 | 1004.1 |
| 20260506184346 | 42 | 124 | 0.9 | 5.2 | 0.06 | 1.15 | 1.00 | 98 | 1004.1 |
| 20260506183616 | 42 | 123 | 1.7 | 5.2 | 0.06 | 1.17 | 1.00 | 98 | 1004.1 |
| 20260506183338 | 42 | 119 | 1.7 | 5.2 | 0.07 | 1.17 | 1.00 | 98 | 1004.0 |
| 20260506182615 | 42 | 128 | 1.7 | 6.1 | 0.06 | 1.16 | 0.99 | 98 | 1004.1 |
| 20260506182115 | 42 | 130 | 1.7 | 6.1 | 0.06 | 1.15 | 0.98 | 98 | 1004.2 |
| 20260506181615 | 42 | 131 | 1.7 | 3.5 | 0.05 | 1.14 | 0.98 | 98 | 1004.4 |
| 20260506181336 | 41 | 107 | 1.7 | 3.5 | 0.06 | 1.14 | 0.97 | 98 | 1004.6 |
| 20260506180620 | 42 | 103 | 0.9 | 2.6 | 0.06 | 1.13 | 0.96 | 98 | 1004.6 |
| 20260506180113 | 42 | 84 | 0.9 | 2.6 | 0.06 | 1.12 | 0.95 | 98 | 1004.5 |
| 20260506175613 | 42 | 84 | 0.0 | 1.7 | 0.08 | 1.12 | 0.95 | 98 | 1004.4 |
| 20260506175111 | 42 | 83 | 0.0 | 1.7 | 0.08 | 1.11 | 0.94 | 98 | 1004.5 |
| 20260506174611 | 42 | 83 | 0.9 | 2.6 | 0.10 | 1.11 | 0.94 | 98 | 1004.5 |
| 20260506174109 | 42 | 83 | 0.9 | 2.6 | 0.11 | 1.11 | 0.94 | 98 | 1004.5 |
| 20260506173607 | 42 | 84 | 0.9 | 2.6 | 0.12 | 1.11 | 0.94 | 98 | 1004.5 |
| 20260506173330 | 42 | 84 | 0.9 | 2.6 | 0.13 | 1.10 | 0.93 | 98 | 1004.5 |
| 20260506172827 | 42 | 82 | 0.9 | 2.6 | 0.14 | 1.10 | 0.93 | 98 | 1004.5 |
| 20260506172327 | 42 | 82 | 0.9 | 3.5 | 0.14 | 1.09 | 0.92 | 98 | 1004.6 |
| 20260506171605 | 42 | 82 | 0.9 | 3.5 | 0.16 | 1.09 | 0.92 | 97 | 1004.7 |
| 20260506171105 | 42 | 55 | 0.9 | 2.6 | 0.16 | 1.08 | 0.91 | 97 | 1004.7 |
| 20260506170605 | 42 | 54 | 0.0 | 1.7 | 0.16 | 1.07 | 0.90 | 97 | 1004.8 |
| 20260506170327 | 42 | 54 | 0.9 | 2.6 | 0.16 | 1.06 | 0.89 | 98 | 1004.8 |
| 20260506165605 | 42 | 54 | 0.9 | 2.6 | 0.14 | 1.04 | 0.87 | 97 | 1004.8 |
| 20260506165102 | 42 | 55 | 0.9 | 2.6 | 0.15 | 1.03 | 0.86 | 98 | 1004.7 |
| 20260506164604 | 42 | 55 | 0.9 | 2.6 | 0.14 | 1.01 | 0.84 | 98 | 1004.7 |
| 20260506164315 | 42 | 54 | 0.9 | 3.5 | 0.13 | 1.00 | 0.83 | 98 | 1004.7 |
| 20260506163557 | 42 | 54 | 0.9 | 3.5 | 0.13 | 0.99 | 0.82 | 98 | 1004.6 |
| 20260506163100 | 42 | 53 | 0.9 | 3.5 | 0.12 | 0.97 | 0.80 | 98 | 1004.7 |
| 20260506162557 | 42 | 53 | 1.7 | 6.1 | 0.12 | 0.96 | 0.79 | 98 | 1004.7 |
| 20260506162057 | 42 | 49 | 0.9 | 6.1 | 0.12 | 0.95 | 0.78 | 98 | 1004.6 |
| 20260506161558 | 42 | 63 | 0.9 | 1.7 | 0.12 | 0.93 | 0.76 | 98 | 1004.8 |
| 20260506161054 | 42 | 63 | 0.9 | 2.6 | 0.12 | 0.92 | 0.75 | 98 | 1004.8 |
| 20260506160555 | 42 | 63 | 0.0 | 2.6 | 0.12 | 0.91 | 0.74 | 98 | 1004.8 |
| 20260506160054 | 42 | 61 | 0.9 | 1.7 | 0.13 | 0.90 | 0.73 | 98 | 1004.9 |
| 20260506155555 | 42 | 61 | 0.0 | 1.7 | 0.14 | 0.90 | 0.73 | 98 | 1004.9 |
| 20260506155055 | 42 | 61 | 0.9 | 2.6 | 0.13 | 0.88 | 0.72 | 98 | 1005.1 |
| 20260506154556 | 42 | 61 | 1.7 | 4.3 | 0.13 | 0.87 | 0.71 | 98 | 1005.0 |
| 20260506154055 | 42 | 61 | 1.7 | 4.3 | 0.14 | 0.87 | 0.70 | 98 | 1004.9 |
| 20260506153820 | 42 | 90 | 1.7 | 5.2 | 0.14 | 0.86 | 0.69 | 97 | 1004.8 |
| 20260506153053 | 42 | 115 | 0.9 | 5.2 | 0.14 | 0.85 | 0.68 | 97 | 1004.9 |
| 20260506152812 | 42 | 139 | 1.7 | 7.0 | 0.14 | 0.84 | 0.67 | 97 | 1005.0 |
| 20260506152052 | 42 | 140 | 1.7 | 7.0 | 0.14 | 0.83 | 0.66 | 97 | 1005.1 |
| 20260506151554 | 42 | 88 | 1.7 | 7.8 | 0.14 | 0.81 | 0.64 | 98 | 1005.1 |
| 20260506151053 | 42 | 122 | 2.6 | 7.8 | 0.14 | 0.80 | 0.63 | 98 | 1005.0 |
| 20260506150553 | 42 | 137 | 1.7 | 7.0 | 0.15 | 0.79 | 0.62 | 97 | 1005.1 |
| 20260506150051 | 42 | 132 | 1.7 | 7.8 | 0.14 | 0.77 | 0.60 | 97 | 1005.2 |
| 20260506145806 | 43 | 117 | 2.6 | 8.7 | 0.14 | 0.76 | 0.59 | 97 | 1005.2 |
| 20260506145048 | 43 | 134 | 2.6 | 8.7 | 0.14 | 0.75 | 0.58 | 97 | 1005.2 |
| 20260506144813 | 43 | 121 | 2.6 | 9.6 | 0.13 | 0.74 | 0.57 | 98 | 1005.2 |
| 20260506144049 | 43 | 99 | 2.6 | 9.6 | 0.13 | 0.73 | 0.56 | 98 | 1004.9 |
| 20260506143548 | 43 | 123 | 2.6 | 7.0 | 0.13 | 0.72 | 0.55 | 98 | 1005.1 |
| 20260506143048 | 43 | 116 | 2.6 | 7.0 | 0.12 | 0.71 | 0.54 | 97 | 1005.0 |
| 20260506142049 | 43 | 120 | 1.7 | 7.0 | 0.12 | 0.69 | 0.52 | 97 | 1005.2 |
| 20260506141814 | 43 | 136 | 2.6 | 7.0 | 0.11 | 0.67 | 0.50 | 98 | 1005.1 |
| 20260506141049 | 43 | 140 | 2.6 | 8.7 | 0.11 | 0.66 | 0.49 | 98 | 1005.1 |
| 20260506140549 | 44 | 98 | 2.6 | 8.7 | 0.10 | 0.64 | 0.47 | 97 | 1005.2 |
| 20260506140314 | 44 | 120 | 3.5 | 7.8 | 0.10 | 0.63 | 0.46 | 97 | 1005.0 |
| 20260506135807 | 44 | 98 | 3.5 | 7.8 | 0.11 | 0.62 | 0.45 | 97 | 1005.1 |
| 20260506135306 | 44 | 130 | 3.5 | 7.8 | 0.12 | 0.61 | 0.45 | 97 | 1005.1 |
| 20260506134809 | 44 | 121 | 2.6 | 7.8 | 0.13 | 0.61 | 0.44 | 97 | 1005.1 |
| 20260506134045 | 44 | 156 | 3.5 | 10.4 | 0.13 | 0.60 | 0.43 | 97 | 1005.0 |
| 20260506133544 | 44 | 76 | 2.6 | 10.4 | 0.13 | 0.59 | 0.42 | 98 | 1004.9 |
| 20260506133045 | 45 | 149 | 2.6 | 7.0 | 0.14 | 0.59 | 0.42 | 97 | 1005.2 |
| 20260506132544 | 45 | 154 | 1.7 | 7.0 | 0.13 | 0.58 | 0.41 | 97 | 1005.3 |
| 20260506132044 | 45 | 142 | 1.7 | 7.8 | 0.13 | 0.57 | 0.40 | 98 | 1005.3 |
| 20260506131544 | 45 | 115 | 1.7 | 7.8 | 0.14 | 0.56 | 0.39 | 98 | 1005.3 |
| 20260506131045 | 45 | 151 | 1.7 | 5.2 | 0.14 | 0.55 | 0.38 | 98 | 1005.5 |
| 20260506130544 | 45 | 166 | 1.7 | 7.0 | 0.14 | 0.54 | 0.37 | 97 | 1005.4 |
| 20260506130044 | 46 | 161 | 1.7 | 7.0 | 0.15 | 0.53 | 0.36 | 97 | 1005.3 |
| 20260506125544 | 46 | 164 | 1.7 | 4.3 | 0.14 | 0.51 | 0.34 | 98 | 1005.6 |
| 20260506125044 | 46 | 119 | 0.9 | 3.5 | 0.14 | 0.49 | 0.32 | 97 | 1005.4 |
| 20260506124542 | 46 | 117 | 0.9 | 3.5 | 0.14 | 0.48 | 0.31 | 98 | 1005.4 |
| 20260506124044 | 46 | 142 | 1.7 | 3.5 | 0.14 | 0.47 | 0.30 | 98 | 1005.3 |
| 20260506123541 | 46 | 152 | 0.9 | 3.5 | 0.14 | 0.46 | 0.29 | 98 | 1005.5 |
| 20260506123035 | 46 | 188 | 0.9 | 3.5 | 0.14 | 0.45 | 0.29 | 98 | 1005.5 |
| 20260506122747 | 45 | 52 | 0.9 | 3.5 | 0.13 | 0.44 | 0.28 | 97 | 1005.5 |
| 20260506122238 | 45 | 316 | 0.9 | 2.6 | 0.13 | 0.43 | 0.27 | 97 | 1005.7 |
| 20260506121734 | 45 | 316 | 0.9 | 2.6 | 0.12 | 0.42 | 0.25 | 97 | 1005.8 |
| 20260506121013 | 45 | 317 | 2.6 | 12.2 | 0.12 | 0.41 | 0.24 | 97 | 1005.9 |
| 20260506120510 | 44 | 317 | 3.5 | 13.0 | 0.11 | 0.40 | 0.24 | 97 | 1005.8 |
| 20260506120229 | 45 | 252 | 2.6 | 13.0 | 0.09 | 0.38 | 0.21 | 97 | 1006.4 |
| 20260506115510 | 45 | 250 | 1.7 | 5.2 | 0.07 | 0.36 | 0.20 | 97 | 1005.8 |
| 20260506115009 | 45 | 214 | 1.7 | 5.2 | 0.07 | 0.35 | 0.18 | 97 | 1005.8 |
| 20260506114508 | 45 | 252 | 1.7 | 3.5 | 0.06 | 0.34 | 0.17 | 97 | 1005.6 |
| 20260506114009 | 45 | 268 | 0.9 | 4.3 | 0.05 | 0.32 | 0.16 | 97 | 1005.7 |
| 20260506113508 | 45 | 350 | 0.9 | 4.3 | 0.05 | 0.32 | 0.15 | 97 | 1005.4 |
| 20260506113009 | 45 | 244 | 0.9 | 3.5 | 0.05 | 0.31 | 0.14 | 97 | 1005.6 |
| 20260506112509 | 45 | 244 | 1.7 | 4.3 | 0.05 | 0.31 | 0.14 | 97 | 1005.7 |
| 20260506112007 | 45 | 243 | 1.7 | 4.3 | 0.05 | 0.30 | 0.13 | 97 | 1005.8 |
| 20260506111506 | 45 | 237 | 1.7 | 4.3 | 0.05 | 0.30 | 0.13 | 97 | 1005.7 |
| 20260506111006 | 45 | 258 | 0.9 | 1.7 | 0.04 | 0.29 | 0.12 | 97 | 1005.7 |
| 20260506110505 | 45 | 258 | 0.9 | 6.1 | 0.04 | 0.29 | 0.12 | 97 | 1005.7 |
| 20260506110007 | 45 | 258 | 1.7 | 6.1 | 0.04 | 0.29 | 0.12 | 97 | 1005.8 |
| 20260506105007 | 45 | 222 | 2.6 | 7.0 | 0.03 | 0.28 | 0.11 | 97 | 1006.0 |
| 20260506104504 | 45 | 222 | 3.5 | 7.0 | 0.04 | 0.28 | 0.11 | 97 | 1005.9 |
| 20260506104005 | 45 | 344 | 3.5 | 7.8 | 0.03 | 0.28 | 0.11 | 97 | 1005.5 |
| 20260506103725 | 45 | 263 | 4.3 | 8.7 | 0.03 | 0.28 | 0.10 | 97 | 1006.4 |
| 20260506103221 | 46 | 255 | 2.6 | 8.7 | 0.02 | 0.27 | 0.09 | 97 | 1006.4 |
| 20260506102503 | 46 | 258 | 1.7 | 7.0 | 0.02 | 0.27 | 0.09 | 97 | 1006.1 |
| 20260506102003 | 46 | 346 | 0.9 | 2.6 | 0.01 | 0.26 | 0.08 | 97 | 1005.7 |
| 20260506101500 | 46 | 347 | 0.0 | 1.7 | 0.01 | 0.26 | 0.08 | 97 | 1005.6 |
| 20260506100958 | 46 | 347 | 0.0 | 1.7 | 0.01 | 0.26 | 0.08 | 97 | 1005.5 |
| 20260506100458 | 46 | 347 | 0.0 | 1.7 | 0.01 | 0.26 | 0.08 | 97 | 1005.6 |
| 20260506100222 | 46 | 347 | 0.0 | 2.6 | 0.01 | 0.26 | 0.08 | 97 | 1005.6 |
| 20260506095459 | 46 | 347 | 0.0 | 2.6 | 0.01 | 0.26 | 0.08 | 97 | 1005.6 |
| 20260506094959 | 46 | 347 | 0.9 | 2.6 | 0.01 | 0.26 | 0.08 | 97 | 1005.7 |
| 20260506094452 | 46 | 347 | 0.9 | 2.6 | 0.01 | 0.25 | 0.07 | 97 | 1005.7 |
| 20260506094208 | 46 | 347 | 0.9 | 2.6 | 0.02 | 0.25 | 0.07 | 96 | 1005.7 |
| 20260506093442 | 46 | 347 | 0.9 | 2.6 | 0.02 | 0.25 | 0.07 | 96 | 1005.9 |
| 20260506092940 | 46 | 348 | 0.9 | 2.6 | 0.02 | 0.25 | 0.07 | 96 | 1005.9 |
| 20260506092704 | 46 | 349 | 0.9 | 3.5 | 0.02 | 0.25 | 0.07 | 96 | 1005.6 |
| 20260506091940 | 46 | 355 | 0.9 | 4.3 | 0.02 | 0.25 | 0.07 | 96 | 1005.7 |
| 20260506091440 | 46 | 0 | 1.7 | 4.3 | 0.02 | 0.25 | 0.07 | 96 | 1006.0 |
| 20260506090941 | 46 | 325 | 0.9 | 4.3 | 0.02 | 0.25 | 0.07 | 96 | 1006.0 |
| 20260506090438 | 46 | 286 | 0.9 | 4.3 | 0.02 | 0.25 | 0.07 | 96 | 1005.9 |
| 20260506090159 | 46 | 349 | 1.7 | 3.5 | 0.02 | 0.25 | 0.07 | 96 | 1006.0 |
| 20260506085436 | 46 | 329 | 2.6 | 7.0 | 0.02 | 0.25 | 0.07 | 96 | 1006.2 |
| 20260506084937 | 46 | 323 | 4.3 | 10.4 | 0.02 | 0.25 | 0.07 | 96 | 1006.4 |
| 20260506084434 | 46 | 0 | 3.5 | 10.4 | 0.01 | 0.24 | 0.06 | 96 | 1007.2 |
| 20260506083932 | 46 | 268 | 1.7 | 5.2 | 0.00 | 0.23 | 0.05 | 96 | 1006.7 |
| 20260506083653 | 46 | 0 | 1.7 | 7.0 | 0.00 | 0.23 | 0.05 | 96 | 1006.0 |
| 20260506082928 | 46 | 304 | 1.7 | 7.0 | 0.00 | 0.23 | 0.05 | 96 | 1006.5 |
| 20260506082428 | 46 | 303 | 1.7 | 3.5 | 0.00 | 0.23 | 0.05 | 96 | 1006.5 |
| 20260506081929 | 46 | 302 | 0.9 | 3.5 | 0.00 | 0.23 | 0.05 | 96 | 1006.5 |
| 20260506081424 | 46 | 285 | 1.7 | 3.5 | 0.00 | 0.23 | 0.05 | 96 | 1006.4 |
| 20260506081142 | 47 | 285 | 0.9 | 3.5 | 0.00 | 0.23 | 0.05 | 95 | 1006.6 |
| 20260506080422 | 47 | 337 | 0.9 | 4.3 | 0.00 | 0.23 | 0.05 | 95 | 1006.2 |
| 20260506080146 | 47 | 338 | 2.6 | 8.7 | 0.00 | 0.23 | 0.05 | 96 | 1006.4 |
| 20260506073418 | 47 | 319 | 2.6 | 9.6 | 0.00 | 0.23 | 0.05 | 96 | 1006.5 |
| 20260506072919 | 47 | 63 | 2.6 | 9.6 | 0.00 | 0.23 | 0.05 | 96 | 1006.2 |
| 20260506072418 | 47 | 250 | 2.6 | 7.0 | 0.00 | 0.23 | 0.05 | 96 | 1006.8 |
| 20260506072139 | 47 | 321 | 2.6 | 7.0 | 0.00 | 0.23 | 0.05 | 96 | 1006.6 |
| 20260506071415 | 47 | 315 | 2.6 | 6.1 | 0.00 | 0.23 | 0.05 | 96 | 1006.7 |
| 20260506070914 | 48 | 279 | 1.7 | 5.2 | 0.00 | 0.23 | 0.05 | 96 | 1006.9 |
| 20260506070411 | 48 | 307 | 0.9 | 4.3 | 0.00 | 0.23 | 0.05 | 97 | 1006.5 |
| 20260506062404 | 48 | 254 | 2.6 | 7.0 | 0.01 | 0.23 | 0.05 | 97 | 1006.2 |
| 20260506061903 | 48 | 252 | 2.6 | 7.0 | 0.01 | 0.23 | 0.05 | 97 | 1006.1 |
| 20260506061404 | 48 | 251 | 2.6 | 6.1 | 0.01 | 0.23 | 0.05 | 97 | 1006.2 |
| 20260506060904 | 48 | 269 | 3.5 | 7.0 | 0.01 | 0.23 | 0.05 | 97 | 1006.2 |
| 20260506060623 | 48 | 313 | 4.3 | 10.4 | 0.01 | 0.23 | 0.05 | 97 | 1006.4 |
| 20260506051358 | 49 | 269 | 2.6 | 6.1 | 0.03 | 0.22 | 0.04 | 97 | 1007.0 |
| 20260506051120 | 49 | 244 | 2.6 | 5.2 | 0.03 | 0.22 | 0.04 | 97 | 1007.0 |
| 20260506050358 | 49 | 256 | 2.6 | 6.1 | 0.04 | 0.22 | 0.04 | 97 | 1006.9 |
| 20260506044858 | 49 | 277 | 2.6 | 7.0 | 0.03 | 0.21 | 0.03 | 96 | 1007.0 |
| 20260506044357 | 49 | 265 | 2.6 | 7.0 | 0.03 | 0.21 | 0.03 | 96 | 1007.5 |
| 20260506043852 | 49 | 262 | 2.6 | 6.1 | 0.03 | 0.21 | 0.03 | 96 | 1007.1 |
| 20260506043351 | 49 | 261 | 1.7 | 6.1 | 0.03 | 0.21 | 0.03 | 96 | 1007.3 |
| 20260506042852 | 49 | 325 | 1.7 | 7.0 | 0.03 | 0.21 | 0.03 | 96 | 1007.0 |
| 20260506042352 | 49 | 252 | 2.6 | 7.0 | 0.03 | 0.21 | 0.03 | 96 | 1007.4 |
| 20260506041849 | 49 | 281 | 2.6 | 7.0 | 0.02 | 0.20 | 0.02 | 96 | 1007.4 |
| 20260506041350 | 49 | 258 | 2.6 | 7.0 | 0.02 | 0.19 | 0.01 | 96 | 1007.4 |
| 20260506040850 | 49 | 257 | 2.6 | 7.0 | 0.02 | 0.19 | 0.01 | 96 | 1007.5 |
| 20260506040350 | 49 | 259 | 1.7 | 7.0 | 0.01 | 0.18 | 0.00 | 96 | 1007.4 |
| 20260506040117 | 49 | 315 | 0.9 | 2.6 | 0.01 | 0.18 | 0.18 | 96 | 1007.0 |
| 20260506035620 | 49 | 319 | 0.9 | 2.6 | 0.01 | 0.18 | 0.18 | 96 | 1006.9 |
| 20260506035112 | 49 | 319 | 0.9 | 2.6 | 0.01 | 0.18 | 0.18 | 95 | 1007.0 |
| 20260506034347 | 49 | 338 | 1.7 | 5.2 | 0.02 | 0.18 | 0.18 | 95 | 1006.7 |
| 20260506033845 | 49 | 338 | 1.7 | 5.2 | 0.02 | 0.18 | 0.18 | 95 | 1006.6 |
| 20260506033341 | 49 | 317 | 1.7 | 4.3 | 0.02 | 0.18 | 0.18 | 95 | 1007.2 |
| 20260506032839 | 50 | 26 | 1.7 | 5.2 | 0.02 | 0.18 | 0.18 | 94 | 1006.9 |
| 20260506032340 | 50 | 315 | 2.6 | 5.2 | 0.02 | 0.18 | 0.18 | 94 | 1006.9 |
| 20260506031840 | 50 | 31 | 1.7 | 3.5 | 0.02 | 0.18 | 0.18 | 95 | 1006.6 |
| 20260506031339 | 50 | 30 | 0.9 | 3.5 | 0.01 | 0.17 | 0.17 | 94 | 1006.9 |
| 20260506030840 | 50 | 269 | 1.7 | 5.2 | 0.02 | 0.17 | 0.17 | 94 | 1007.2 |
| 20260506030338 | 50 | 263 | 1.7 | 5.2 | 0.02 | 0.17 | 0.17 | 93 | 1007.1 |
| 20260506025838 | 51 | 267 | 0.9 | 3.5 | 0.02 | 0.17 | 0.17 | 93 | 1007.0 |
| 20260506025555 | 51 | 263 | 2.6 | 7.8 | 0.02 | 0.17 | 0.17 | 92 | 1006.9 |
| 20260506024838 | 51 | 247 | 2.6 | 7.8 | 0.02 | 0.17 | 0.17 | 92 | 1007.1 |
| 20260506024556 | 51 | 262 | 4.3 | 12.2 | 0.01 | 0.16 | 0.17 | 92 | 1007.2 |
| 20260506023834 | 52 | 246 | 5.2 | 13.0 | 0.01 | 0.16 | 0.16 | 91 | 1006.8 |
| 20260506023608 | 52 | 236 | 5.2 | 13.0 | 0.01 | 0.16 | 0.16 | 91 | 1007.0 |
| 20260506022833 | 53 | 338 | 5.2 | 14.8 | 0.01 | 0.16 | 0.16 | 91 | 1006.6 |
| 20260506022334 | 53 | 331 | 6.1 | 14.8 | 0.01 | 0.16 | 0.16 | 91 | 1006.5 |